RH
16 15 14 13 13 12 11 10 10 9 9 9 8 8 7 7 7 7 7 7 7 6 6 6 6 7 7 7 8 8 10 10 10 10 10 10 10 10 11 11 10 11 13 14 14 17 21 22 24 29 33 34 36 43 52 61 70 78 86 79 53 37 35 35 34 35 36 36 35 33 33 33 33 35 37 39 39 38 38 39 44 50 54 53 51
16 15 14 14 14 12 10 9 9 9 9 8 7 7 7 7 8 8 8 8 8 7 6 6 7 7 7 7 7 8 10 10 10 10 10 10 9 10 10 11 11 11 11 11 12 15 19 22 24 28 34 37 36 41 50 60 67 71 86 95 73 44 34 35 37 43 46 46 46 45 41 37 34 32 32 35 38 39 38 40 44 49 53 55 53
14 12 12 12 11 10 10 10 12 14 15 14 13 12 9 7 7 8 8 8 9 8 7 7 7 8 7 7 7 8 9 9 10 9 10 10 9 10 10 11 11 11 11 11 11 12 20 31 31 27 31 37 39 40 45 52 58 62 73 90 83 54 38 39 42 46 48 48 49 49 48 46 43 39 35 32 32 35 37 39 42 48 54 58 58
13 12 12 11 10 10 11 12 13 14 15 17 19 20 17 12 10 8 7 7 7 8 8 8 7 7 8 8 8 8 9 9 9 9 10 10 9 9 9 10 10 11 12 11 12 15 22 28 26 23 29 34 38 40 41 42 46 49 55 71 77 61 49 49 53 57 60 63 63 60 57 56 53 50 46 40 35 33 33 35 36 41 49 56 61
10 10 10 10 9 9 9 10 10 11 12 12 13 16 18 16 14 11 9 8 7 7 7 7 8 7 7 8 9 9 9 9 9 9 9 9 9 9 9 10 10 11 12 11 12 15 17 16 13 14 20 24 26 30 32 33 38 42 46 60 69 68 66 66 68 72 73 76 79 80 78 75 71 66 58 51 45 39 34 34 35 36 40 47 55
9 9 8 8 8 8 9 9 11 14 15 15 13 11 12 12 13 12 11 10 9 8 7 7 7 7 7 7 8 9 9 9 9 9 9 9 9 9 9 9 10 10 11 11 11 12 11 11 12 11 13 16 17 19 21 27 34 34 39 53 63 65 70 73 70 66 62 63 72 79 84 86 86 83 75 64 55 49 41 37 38 38 38 40 46
9 8 9 9 10 10 12 14 16 18 19 18 17 14 12 11 11 11 11 10 10 10 9 8 7 7 7 7 7 8 9 9 9 9 9 9 9 9 9 9 10 10 10 11 10 11 10 10 12 11 13 16 15 18 24 32 39 37 37 45 50 52 61 64 58 53 50 50 58 64 70 81 91 93 89 80 69 61 51 42 39 39 38 38 41
10 10 10 11 12 13 16 21 23 22 20 20 19 17 16 15 14 13 12 11 11 11 11 10 9 7 7 7 7 7 8 9 8 9 9 9 10 9 10 9 10 10 10 11 10 10 10 10 10 10 15 20 19 25 34 40 46 45 40 40 42 41 43 45 42 44 50 51 51 54 57 67 81 92 95 93 85 75 64 53 44 39 38 36 37
12 12 12 13 14 15 19 25 27 24 21 21 21 21 21 21 20 19 18 17 15 14 13 13 12 10 8 7 7 7 7 8 8 9 9 9 10 10 10 10 10 10 10 11 10 10 9 10 10 9 12 16 18 23 30 36 39 40 36 37 42 40 40 45 44 46 54 56 55 57 57 54 63 81 92 97 96 90 79 67 55 45 40 38 36
13 13 14 15 16 17 21 27 27 26 24 22 23 25 25 25 24 24 24 23 22 21 19 17 15 13 11 8 7 7 7 7 7 8 9 10 10 10 10 10 10 10 11 11 11 11 10 10 10 10 10 11 13 14 18 22 27 31 30 30 33 31 37 44 44 44 45 48 52 56 56 49 50 62 75 85 90 94 93 84 73 60 49 43 41
13 13 15 16 17 19 24 29 28 27 24 24 27 29 29 29 29 27 26 27 28 28 28 25 20 15 12 11 9 8 7 7 7 7 9 9 10 10 10 10 10 10 11 12 12 12 12 12 11 11 11 11 11 11 12 13 16 20 20 20 23 24 29 30 28 34 37 38 42 45 47 47 47 49 53 60 66 76 88 93 91 83 67 54 48
11 12 14 17 19 21 26 30 29 27 25 26 30 30 33 39 40 38 37 36 36 35 36 34 30 22 15 11 10 10 8 7 7 7 8 9 9 10 11 11 11 11 11 12 12 13 13 13 13 13 13 13 13 13 13 13 13 14 13 14 19 22 23 19 17 27 37 38 36 33 34 38 45 46 39 38 41 50 64 78 89 94 88 71 58
10 11 16 20 21 24 29 30 29 27 24 26 31 33 39 44 45 44 45 46 45 45 46 45 42 37 28 19 12 10 10 9 8 7 7 8 9 9 11 11 11 11 12 12 12 12 13 13 14 14 14 14 14 15 15 15 15 14 14 13 15 16 17 15 15 24 30 29 28 28 26 24 31 37 32 27 29 35 44 56 67 80 92 88 75
10 10 15 22 24 27 30 31 29 23 21 28 35 38 40 41 41 43 46 48 48 50 51 51 52 50 45 36 25 15 10 9 9 9 8 8 8 9 9 10 11 11 11 11 12 12 13 13 13 13 14 14 14 14 14 15 15 15 15 15 14 13 13 13 14 18 18 16 19 22 18 13 14 19 21 22 25 29 34 38 45 54 69 83 87
10 9 14 20 25 28 30 31 27 18 22 35 38 38 39 41 44 46 49 50 49 51 52 53 55 56 54 49 42 33 24 16 11 9 8 8 8 8 8 9 9 10 11 11 11 11 12 12 13 12 12 13 13 13 14 14 15 15 16 16 16 15 15 16 15 14 14 14 15 15 12 10 8 9 10 12 16 21 23 22 27 34 42 59 77
9 9 11 17 24 27 30 31 22 18 30 37 35 38 43 47 49 50 51 48 46 46 47 50 55 56 57 53 49 48 45 39 30 21 15 11 9 8 8 9 8 9 10 11 11 11 11 12 12 13 13 12 12 12 13 13 14 15 16 16 16 17 17 18 18 16 15 14 14 14 13 12 9 8 7 6 7 9 12 13 15 21 25 34 51
9 10 11 15 22 26 30 27 18 25 36 35 36 44 49 51 52 52 48 41 36 34 33 36 42 47 52 52 51 53 55 56 54 49 39 29 20 14 10 9 9 9 10 10 10 10 10 11 11 12 12 12 12 12 12 13 13 14 15 16 17 17 17 16 16 16 15 15 14 13 12 11 10 9 8 6 6 5 6 9 10 13 15 17 25
8 10 11 14 19 25 29 22 19 32 37 35 43 51 53 53 54 53 47 38 28 21 19 18 21 26 31 34 36 39 42 47 55 60 61 56 49 39 29 20 14 10 10 11 11 11 11 11 11 12 12 12 12 12 13 13 13 13 14 15 15 16 16 17 16 15 14 14 14 13 12 10 9 8 8 7 7 6 5 6 7 9 11 12 13
8 10 12 14 17 23 26 18 22 36 36 39 50 57 58 56 56 55 51 43 27 15 14 14 15 17 17 18 19 19 22 26 34 43 50 55 58 58 55 49 40 28 18 13 11 11 11 11 11 12 12 13 13 13 13 13 13 14 14 15 16 16 16 17 17 17 17 15 15 14 13 12 10 8 8 8 7 7 6 5 5 6 7 10 12
8 11 13 14 15 21 24 17 24 38 37 43 55 59 61 58 57 57 57 54 35 17 17 18 19 20 20 21 20 18 18 17 19 22 26 30 35 39 44 49 53 52 44 34 27 22 21 22 23 26 27 28 27 23 19 17 15 14 14 15 17 18 17 17 17 17 17 17 16 16 15 14 13 11 8 7 7 8 7 7 6 5 5 6 8
9 11 14 15 14 20 23 16 25 39 39 44 55 61 62 59 56 55 56 55 37 21 21 22 22 23 23 24 25 24 24 22 21 19 18 18 18 19 20 23 31 41 48 50 50 48 47 48 49 51 53 52 51 47 40 32 24 19 16 16 17 18 18 17 18 18 18 19 18 18 18 17 16 15 12 9 7 8 8 8 7 6 6 6 5
9 12 15 16 15 19 22 17 24 39 41 44 54 61 64 60 52 46 43 41 30 23 24 22 22 23 23 25 26 27 28 28 28 25 23 21 19 18 17 16 18 21 27 32 36 39 41 42 42 43 45 47 50 53 54 51 43 33 23 17 16 17 17 17 17 19 20 20 20 20 19 19 18 17 16 14 10 8 8 8 9 8 6 6 6
9 11 15 18 16 18 21 18 24 39 43 44 53 62 66 60 49 39 32 29 28 25 24 24 26 26 25 25 25 25 27 29 30 30 30 28 26 24 22 20 20 19 19 18 19 21 22 23 24 27 29 33 38 43 49 55 56 51 39 27 20 17 16 17 17 18 19 20 21 22 22 22 21 19 18 17 14 11 10 9 9 9 8 7 6
8 10 14 18 18 18 20 20 26 39 43 45 53 62 66 60 47 36 30 29 27 24 24 27 29 28 25 23 22 22 22 23 25 27 29 31 31 31 29 26 24 23 22 20 18 18 19 19 20 21 23 25 30 35 40 47 53 57 53 42 31 23 19 18 18 18 18 18 20 21 24 25 26 25 22 20 19 17 14 12 10 9 10 9 8
9 11 15 20 20 19 20 22 29 40 44 47 55 61 65 59 44 34 30 28 25 23 26 27 26 25 22 21 20 21 22 22 22 23 24 26 29 32 33 33 30 28 26 24 22 20 19 19 19 19 19 20 23 28 33 38 45 53 57 54 46 35 26 21 19 18 18 19 20 20 22 23 25 27 26 24 22 21 19 17 14 11 10 10 10
11 14 18 22 22 20 20 21 30 41 44 48 56 61 62 55 41 32 30 28 25 25 25 24 24 25 23 23 23 23 23 23 22 24 24 24 24 27 31 35 36 33 31 29 25 22 20 19 18 18 18 19 21 23 26 30 36 43 50 56 56 48 38 29 23 20 20 20 21 23 24 27 29 31 31 30 28 26 24 22 19 16 13 11 10
11 18 24 26 24 21 19 20 28 39 45 51 58 60 59 52 39 32 30 27 25 24 24 25 26 27 26 25 25 25 25 24 23 24 28 30 28 26 29 34 39 38 35 32 28 23 20 18 17 18 18 18 18 18 19 21 25 30 36 45 54 57 53 48 42 39 38 38 39 40 40 42 44 45 46 46 45 42 38 33 29 24 20 16 13
10 19 27 30 27 22 18 19 27 40 49 56 60 59 56 48 37 31 29 25 22 22 24 27 29 28 27 26 26 26 26 25 24 24 27 34 37 34 32 34 39 40 37 34 30 24 20 18 17 17 17 17 16 16 17 18 20 22 26 33 41 50 55 57 59 59 60 61 63 64 63 61 59 56 54 54 54 55 54 52 47 41 34 26 19
9 19 29 33 31 24 18 19 26 40 53 60 60 56 51 43 35 31 27 20 18 21 25 29 31 30 29 29 28 28 27 26 24 22 23 29 37 41 40 39 41 42 40 37 32 26 21 18 16 16 16 16 15 16 16 18 20 23 26 29 33 38 44 50 55 59 63 67 72 75 78 80 78 74 69 63 59 57 56 57 56 55 51 45 36
10 18 29 35 34 25 17 19 25 38 53 59 57 52 45 38 33 28 21 16 19 24 29 33 34 33 30 29 28 28 28 27 25 23 20 22 28 35 40 43 44 45 44 39 32 26 22 18 17 17 16 16 15 15 15 16 19 22 25 29 31 33 35 39 43 48 53 57 61 65 69 75 81 83 82 77 70 63 58 55 54 54 54 53 50
10 17 29 37 37 27 17 19 27 40 52 55 53 47 39 33 29 23 18 19 24 29 34 38 37 35 31 28 27 27 25 24 24 24 22 19 20 24 30 36 39 41 42 39 32 25 22 19 18 18 18 16 15 14 14 16 17 20 22 25 28 31 32 34 36 39 41 44 48 53 60 69 76 81 84 82 77 70 66 64 63 63 62 60 57
10 18 32 40 39 29 18 18 30 44 50 50 46 41 34 30 25 20 20 24 29 34 40 43 42 40 35 29 26 25 23 23 22 21 20 19 17 18 21 23 26 29 33 33 29 23 20 19 18 18 17 16 16 15 15 15 16 19 23 25 27 30 33 37 40 42 44 48 53 58 66 73 78 81 82 83 82 79 77 77 77 76 76 75 74
13 23 37 41 39 30 18 19 34 45 48 45 41 36 31 27 23 22 25 28 31 38 46 50 51 47 39 32 29 26 23 22 21 20 19 18 17 17 17 17 18 19 22 23 21 18 17 17 16 16 16 15 16 16 15 15 16 19 24 28 31 33 36 40 43 46 49 53 58 62 65 65 65 65 64 65 67 69 71 75 78 79 79 79 80
21 31 42 42 38 29 18 21 36 45 46 43 38 33 30 26 24 26 29 30 34 41 48 52 55 52 44 37 34 31 27 24 22 21 20 19 19 19 18 17 17 17 18 18 18 17 17 17 17 16 16 16 16 17 17 17 17 18 21 27 32 37 41 45 49 51 52 52 51 50 48 46 44 42 41 41 41 42 45 49 54 60 64 66 65
33 41 47 43 36 26 19 25 37 44 47 43 36 32 29 26 27 29 31 33 36 42 46 49 53 54 50 43 39 37 34 31 29 27 25 23 22 21 20 20 19 18 19 18 18 18 18 18 18 17 17 17 18 18 18 19 19 19 20 23 29 38 45 51 57 60 61 60 59 57 57 58 55 49 42 38 35 33 32 32 32 34 37 40 41
46 49 50 44 34 24 21 29 39 46 48 43 35 31 29 28 31 34 34 36 37 40 43 47 51 53 53 49 45 42 39 37 36 35 33 31 30 28 26 24 22 21 20 20 19 19 19 19 19 19 19 19 19 19 19 19 20 21 22 24 26 32 36 40 43 45 46 49 53 57 62 65 65 61 55 49 44 39 34 31 29 29 29 28 27
51 52 51 44 31 23 27 35 43 48 48 41 33 30 30 32 36 38 39 39 38 37 40 45 49 54 57 56 50 44 41 39 39 39 38 36 34 33 33 30 28 26 24 23 22 22 21 21 21 21 21 20 20 20 20 20 21 22 25 28 28 28 28 28 27 27 27 29 32 35 37 39 40 40 42 42 42 40 36 31 28 26 26 26 25
51 53 50 41 26 24 34 42 45 47 44 37 32 31 33 38 42 44 43 40 36 34 36 41 46 52 57 57 50 44 42 41 41 40 37 35 33 33 35 35 33 30 27 26 25 24 23 22 22 22 21 21 21 20 20 20 21 23 24 27 29 27 25 24 23 23 22 22 23 24 24 24 23 23 24 25 27 28 27 27 26 24 23 23 23
50 50 45 34 23 24 35 43 46 44 39 34 33 35 39 44 48 48 44 38 34 33 35 39 45 49 51 51 47 43 42 42 42 39 35 32 31 30 33 35 34 30 27 26 25 25 25 24 23 23 22 22 21 21 21 21 21 22 22 22 24 25 23 23 24 24 24 22 22 22 21 21 21 22 22 23 23 22 21 22 23 23 23 24 25
47 44 37 26 19 21 29 38 42 39 35 34 35 40 45 49 52 49 42 36 35 36 38 43 47 47 47 47 46 44 44 44 42 38 33 31 30 31 32 33 31 29 26 25 26 26 26 25 24 23 23 23 22 21 21 22 21 21 19 19 23 26 26 27 26 22 21 22 24 26 27 27 28 29 30 31 31 29 28 29 29 29 28 27 27
34 32 27 20 17 17 22 31 37 35 34 36 40 46 51 52 50 45 39 35 36 40 44 46 47 48 48 48 47 47 49 48 44 38 33 31 31 33 34 32 30 28 26 25 26 27 28 27 24 23 23 23 22 22 22 22 20 20 20 21 26 27 23 23 27 27 25 27 30 33 36 37 36 36 37 37 38 37 35 35 36 35 34 33 30
25 22 19 17 16 16 18 26 32 33 34 38 44 50 53 51 47 42 38 35 36 43 46 46 48 50 49 50 52 54 57 57 50 41 34 32 32 34 34 32 30 28 26 26 27 28 29 28 26 23 23 23 23 22 22 20 20 23 24 23 23 22 19 21 30 38 38 36 37 40 43 44 44 44 44 42 41 40 39 38 37 36 35 34 33
28 25 20 16 16 16 17 23 28 32 35 40 47 53 53 48 44 42 39 36 38 44 46 46 48 50 53 58 61 59 61 64 59 47 37 33 33 34 34 33 30 28 27 26 27 28 29 31 28 23 22 23 22 21 20 20 22 25 23 20 19 21 22 25 33 42 46 45 46 50 53 53 52 50 46 42 39 37 35 33 32 32 32 31 31
30 30 27 22 19 17 18 21 25 29 34 42 50 54 53 47 43 43 41 37 41 48 49 47 46 49 53 58 61 61 66 73 71 60 46 36 33 33 33 33 32 29 27 26 26 27 30 33 31 25 21 22 21 20 19 19 20 20 19 19 20 22 27 35 42 50 55 56 56 56 55 49 44 39 34 31 29 28 27 26 25 24 24 23 23
31 29 28 26 22 20 20 22 25 29 35 44 53 55 52 46 44 46 43 39 45 52 54 51 48 46 46 52 65 76 80 80 77 70 56 41 34 34 34 33 32 29 28 26 25 26 28 29 26 22 20 20 20 21 20 18 18 17 17 20 26 34 43 50 54 57 58 54 48 41 35 28 23 20 19 18 18 18 19 21 21 21 20 19 19
35 29 27 27 25 23 22 24 27 29 34 45 54 56 53 47 46 50 46 43 49 56 58 57 55 50 48 56 72 83 84 80 76 75 67 49 36 35 34 32 30 29 28 27 26 25 24 22 21 19 18 19 19 19 18 16 14 14 17 26 38 47 52 52 51 48 42 33 24 17 14 10 8 7 7 7 7 9 12 17 19 21 21 20 20
43 35 29 28 27 25 24 25 28 29 34 46 54 56 54 51 51 53 51 48 55 62 64 63 63 60 59 65 73 79 84 82 77 80 76 55 40 38 35 30 29 28 27 27 26 24 22 20 19 18 17 16 16 15 13 11 11 14 23 34 41 42 40 37 33 26 17 11 7 6 4 4 4 4 4 4 4 4 7 11 15 20 23 23 22
50 41 34 29 27 26 25 26 28 28 32 45 56 58 58 57 56 56 55 55 61 68 71 69 67 67 68 70 72 76 80 80 80 85 79 57 44 42 35 30 29 27 27 27 24 22 20 18 17 17 15 13 11 9 9 9 13 21 29 32 32 30 26 20 14 8 5 5 4 4 4 4 4 4 4 4 4 4 5 7 10 17 24 27 26
56 47 39 33 29 29 28 27 29 28 32 45 56 60 62 63 62 59 58 58 63 72 75 70 67 69 72 71 68 69 75 78 80 85 79 61 50 43 35 30 30 28 28 27 24 20 18 17 16 14 11 9 7 6 8 11 17 23 26 26 24 20 14 8 4 4 4 4 4 4 4 4 4 4 5 4 4 4 4 6 9 14 22 28 29
62 55 45 37 33 31 30 30 30 30 34 45 55 60 65 68 64 60 58 57 63 73 76 69 64 67 74 74 68 70 77 75 71 77 81 69 52 40 34 31 30 29 29 26 22 19 18 17 14 10 7 6 6 6 9 14 18 21 21 20 16 10 5 4 4 5 5 5 6 5 5 5 5 4 5 4 6 9 8 8 12 17 20 26 30
68 62 51 43 38 33 31 32 32 32 33 42 53 61 67 69 65 62 60 58 64 75 76 66 62 69 75 74 71 75 78 71 66 73 77 65 47 36 33 33 32 30 27 23 19 18 17 14 10 7 6 6 6 7 10 13 16 17 16 12 7 4 4 5 5 6 6 6 6 6 6 6 5 5 5 4 8 23 31 29 29 33 33 32 34
Wind_Speed
14 13 13 12 11 11 11 10 9 9 9 9 9 8 8 8 8 8 8 7 7 7 8 8 9 10 10 10 9 9 9 10 10 10 10 9 9 8 7 7 7 7 7 7 6 6 5 3 2 2 1 0 1 2 3 5 6 8 11 14 15 13 11 10 9 8 7 7 7 7 7 7 8 9 9 9 9 8 8 8 8 8 8 8 8
13 13 12 11 11 11 11 10 9 9 9 9 9 8 8 8 8 8 8 7 7 6 6 7 7 8 9 9 9 9 8 8 9 9 9 10 10 9 9 8 8 7 7 6 6 6 5 4 3 3 2 1 0 1 1 3 4 6 9 13 15 14 12 11 10 9 9 9 9 9 9 9 9 9 10 10 10 9 9 9 9 9 8 8 8
12 12 12 11 11 11 10 10 9 8 8 7 7 6 7 7 7 7 7 7 7 6 6 6 6 6 7 8 8 8 8 7 8 8 8 9 10 10 9 9 9 9 8 7 6 5 6 6 5 4 3 2 1 1 1 1 2 4 5 8 12 14 13 12 12 12 12 13 13 13 13 12 12 11 12 11 11 11 10 10 10 10 9 9 8
12 11 11 11 11 10 10 9 8 8 7 7 6 5 5 5 6 7 7 7 7 7 7 7 6 5 5 6 6 7 7 7 7 8 7 8 9 10 10 10 9 9 9 8 7 6 6 6 6 5 4 3 2 2 2 2 2 2 3 2 8 11 12 13 14 14 15 15 16 16 16 16 16 15 15 14 13 13 12 11 11 11 11 10 9
11 11 11 10 10 10 9 8 8 7 7 7 7 6 5 5 5 6 6 6 7 7 7 7 6 5 4 4 5 5 5 5 6 7 7 7 8 9 10 10 9 9 8 8 8 8 7 6 5 5 4 3 3 2 2 3 3 3 2 1 5 8 9 11 13 13 12 12 13 13 14 16 17 18 18 17 16 15 14 13 12 12 12 12 11
10 10 10 9 9 8 7 7 7 7 7 8 8 8 6 5 5 5 5 5 6 7 7 7 7 6 6 5 5 4 4 4 4 5 6 6 7 8 9 9 9 9 8 8 8 8 7 6 5 5 4 4 4 3 4 3 3 4 3 2 3 4 5 7 9 9 9 8 9 10 11 13 14 17 19 18 17 17 16 15 14 14 13 13 12
9 9 9 8 7 6 6 6 6 7 7 8 8 8 8 7 6 6 6 6 6 7 7 7 8 8 7 7 6 6 5 4 3 3 5 6 6 7 7 8 8 9 8 8 8 8 8 7 7 6 5 5 5 5 5 4 3 4 4 2 2 2 4 5 6 6 6 6 7 9 10 10 11 13 16 18 19 19 19 18 17 16 15 14 13
8 7 7 6 6 6 6 6 6 7 7 8 9 9 8 8 8 8 8 8 8 8 8 8 7 7 7 7 7 7 7 6 4 3 4 5 5 5 6 7 7 8 8 8 8 8 8 8 8 8 7 6 6 6 6 5 4 3 2 3 3 3 4 5 5 5 6 6 7 9 9 9 9 10 12 16 19 20 21 21 20 19 17 16 14
7 6 6 5 5 5 5 6 6 7 8 9 9 9 9 9 9 9 9 10 9 9 9 8 7 6 6 7 7 7 8 9 7 6 5 5 5 5 5 6 6 7 7 7 8 8 8 8 8 9 9 8 7 7 8 6 4 3 2 4 4 4 5 6 6 6 7 7 7 8 9 8 8 8 10 12 15 18 21 22 22 21 20 18 17
5 5 5 4 4 4 5 7 8 8 9 9 9 9 9 9 9 9 10 10 9 9 8 8 8 7 6 6 6 7 8 9 9 8 8 6 5 6 6 5 5 6 6 7 7 8 8 9 9 10 10 9 9 9 9 8 7 5 5 6 6 6 6 7 7 7 7 8 8 8 7 7 7 8 9 10 12 15 18 20 22 22 22 21 20
5 4 4 3 4 5 6 8 9 10 10 10 10 10 10 10 10 9 9 8 8 8 8 8 8 7 7 6 6 7 7 8 9 8 9 8 8 7 7 6 6 6 6 6 7 7 8 9 9 10 10 10 9 9 10 11 9 8 8 9 9 8 7 7 8 9 8 8 8 8 8 8 8 7 8 10 12 13 15 16 18 21 24 24 23
4 4 3 3 4 5 7 9 10 11 11 11 10 10 10 10 10 10 9 8 8 8 8 8 8 7 7 6 6 6 7 8 8 9 9 10 9 9 9 8 8 7 7 7 7 7 8 8 9 10 11 11 11 10 10 11 11 10 11 12 11 10 9 8 9 10 10 10 9 8 9 10 10 9 8 9 12 14 14 14 14 17 22 25 25
4 3 3 4 5 6 7 9 10 11 11 10 10 10 10 11 11 11 11 10 10 10 9 9 8 8 7 7 7 6 7 7 8 9 10 10 11 11 11 10 9 9 9 9 8 8 8 9 9 9 10 11 12 11 11 11 11 11 11 12 13 13 13 11 10 11 10 10 11 10 10 11 12 12 11 10 12 13 13 13 13 14 17 22 25
3 3 3 4 5 6 7 9 10 11 10 9 9 10 11 12 12 13 14 13 13 12 11 10 9 8 7 6 6 6 6 7 7 8 9 10 11 12 12 12 11 10 11 11 10 10 9 10 10 10 10 11 12 12 12 13 13 12 12 12 13 14 14 14 13 13 12 11 11 10 10 12 12 13 14 14 14 14 14 13 13 13 14 17 22
2 3 4 5 6 6 8 9 10 9 8 8 9 10 11 12 14 14 15 14 14 14 13 12 10 8 6 5 5 5 5 6 7 8 8 10 11 12 13 13 13 12 12 13 13 12 11 11 11 11 11 11 12 12 13 13 14 14 14 14 14 14 14 14 15 15 15 14 13 12 11 12 11 12 13 15 16 16 16 15 14 14 14 15 16
2 4 5 5 6 7 8 9 9 8 7 7 8 9 11 13 15 15 15 15 16 16 16 14 11 8 6 5 5 6 6 5 6 7 8 9 10 11 12 13 13 13 13 14 14 14 14 13 13 13 13 13 13 13 14 14 14 15 15 15 15 15 14 14 14 15 16 16 15 15 14 13 12 12 12 13 15 17 18 18 17 16 15 14 14
4 5 6 6 7 7 7 8 7 6 6 6 7 9 12 14 15 14 15 16 16 17 17 16 15 12 9 7 6 7 7 7 7 7 7 8 9 10 11 12 12 12 13 14 15 15 15 15 15 15 15 15 15 14 15 15 15 15 15 15 16 16 16 16 15 15 16 16 17 17 17 16 15 14 13 13 14 15 17 19 19 19 17 16 14
5 6 7 7 7 7 7 7 6 5 5 6 7 10 12 14 14 12 13 16 16 16 16 17 16 15 13 11 10 9 9 9 9 8 9 9 10 10 11 11 12 12 12 13 14 14 15 16 17 17 18 18 17 17 17 17 17 17 17 17 17 17 17 17 17 17 17 17 17 18 18 18 18 17 16 15 14 14 15 17 18 20 20 19 17
7 7 8 8 8 7 7 6 5 4 4 5 7 10 12 13 11 9 10 14 15 15 15 16 16 16 15 14 13 13 12 12 11 10 10 9 10 10 11 12 12 12 12 12 13 13 15 16 17 18 18 19 19 19 19 19 19 19 19 19 19 19 19 19 19 19 18 18 18 18 19 19 19 19 19 18 17 16 16 16 17 19 20 21 21
7 7 8 9 8 8 7 6 4 4 4 5 7 9 12 12 10 8 8 10 12 12 13 14 14 15 15 15 14 14 14 13 13 12 11 11 10 10 11 11 12 13 13 13 13 13 14 15 16 17 18 19 20 20 21 22 22 21 21 21 21 21 21 21 21 20 20 20 20 20 20 20 20 20 20 20 20 19 18 17 17 18 19 20 21
8 8 9 9 9 8 7 6 5 4 4 4 6 8 11 11 10 9 8 9 10 10 10 11 11 12 12 13 13 13 14 13 13 13 13 12 12 11 11 11 12 12 13 13 14 15 15 16 17 18 18 19 20 21 22 23 23 23 23 23 23 23 23 22 22 21 21 21 21 21 21 20 21 21 21 21 22 22 21 20 19 19 19 19 20
8 8 9 9 9 8 7 6 5 5 5 4 5 7 10 11 9 8 8 8 8 9 9 10 11 11 12 12 13 13 14 14 14 13 13 13 13 13 12 12 13 13 13 14 15 16 17 18 18 19 19 20 20 20 21 22 23 24 24 25 24 24 24 23 23 22 22 22 22 22 21 21 21 21 21 22 22 23 23 23 22 21 21 20 20
9 9 10 10 10 9 8 7 6 6 6 5 5 7 10 10 8 8 8 7 8 9 10 11 12 13 13 14 14 15 15 15 15 15 14 14 13 13 13 13 13 13 14 15 16 17 17 18 19 20 21 21 21 21 21 21 21 22 23 25 25 25 25 25 25 25 24 24 24 24 23 23 23 22 22 22 22 23 24 24 24 24 23 23 22
11 11 11 11 10 9 8 8 7 7 6 6 6 7 10 9 8 7 7 7 9 10 11 12 14 15 16 16 16 16 16 15 15 15 15 15 14 13 13 13 13 13 14 14 15 16 17 19 20 21 22 23 23 22 22 21 21 21 22 24 25 26 26 27 27 27 26 26 26 25 26 26 25 25 24 24 24 24 24 25 25 25 25 25 25
12 12 12 12 11 10 9 9 9 8 7 7 7 8 9 9 8 7 8 9 11 12 13 14 16 18 19 20 20 19 18 17 16 15 15 15 15 15 14 13 13 13 14 14 15 15 16 17 19 20 22 23 23 23 22 22 22 22 22 23 24 25 26 27 28 28 28 28 28 28 28 28 28 27 27 26 25 25 25 25 25 26 26 26 26
13 13 13 13 12 10 10 10 10 9 8 8 8 8 9 8 8 8 9 11 13 13 15 17 18 19 20 20 20 20 20 19 19 18 16 15 15 15 15 15 14 14 14 15 15 15 15 16 17 18 20 20 21 21 21 22 22 23 23 23 24 25 26 27 28 28 29 29 30 30 30 30 29 29 29 29 28 28 27 26 26 26 26 27 27
14 14 15 14 13 12 11 12 11 10 9 9 9 9 9 9 9 10 12 14 14 15 17 18 19 20 20 20 20 20 20 21 20 20 19 17 15 15 16 16 15 15 15 15 15 15 15 15 15 15 16 17 18 18 19 20 21 22 23 24 25 26 27 27 28 29 29 30 31 31 31 31 31 31 31 31 31 31 30 29 29 28 27 27 28
14 15 16 16 15 13 13 13 12 11 10 10 9 9 9 9 10 11 14 15 14 16 17 17 19 20 21 20 20 20 21 22 22 22 21 20 17 15 14 15 15 15 15 15 15 15 15 15 15 14 14 15 15 16 17 18 19 20 21 23 24 25 27 28 29 30 30 31 32 32 32 32 32 33 33 33 33 33 33 33 32 31 30 29 29
15 16 17 18 16 15 15 14 13 11 11 11 10 9 9 10 11 13 15 15 15 15 15 16 18 20 21 20 19 19 19 20 21 22 22 21 20 17 14 13 14 14 15 15 15 15 15 15 15 15 15 15 16 17 17 17 18 19 20 21 22 24 25 27 28 29 30 31 32 32 32 32 31 32 32 33 34 34 35 35 34 34 33 32 31
18 17 18 18 18 17 16 16 14 13 12 12 11 10 10 10 11 14 15 16 15 14 14 15 17 19 20 19 19 18 18 17 18 19 20 20 19 18 16 14 12 13 14 14 14 16 16 15 14 15 15 17 18 19 19 19 19 19 20 20 21 22 23 25 27 28 29 30 31 32 32 32 31 31 31 32 33 33 34 35 36 36 35 34 33
19 18 18 18 19 19 18 18 16 14 13 13 11 10 10 11 12 14 16 15 14 13 14 15 16 17 18 18 17 17 18 18 18 18 18 18 18 17 17 15 14 13 13 13 13 14 15 16 16 16 17 18 19 20 20 20 21 21 21 21 21 22 23 25 26 28 29 30 31 32 32 32 33 33 33 33 33 33 33 34 35 35 35 35 35
21 20 19 19 20 20 20 19 17 16 15 13 12 11 11 11 13 15 15 14 13 14 15 14 15 16 17 17 17 17 17 18 18 18 18 18 17 16 17 17 16 15 15 14 13 13 15 17 18 19 20 21 21 21 22 22 21 22 22 22 23 24 25 26 27 28 29 30 31 32 32 33 34 34 34 34 35 35 35 35 36 36 36 36 36
22 21 20 20 21 21 21 20 19 17 16 14 12 11 11 12 14 15 14 14 14 15 15 14 15 17 17 16 16 16 16 17 17 18 18 18 17 16 16 17 17 17 17 17 17 17 17 18 20 21 22 23 23 22 23 23 22 22 23 23 24 25 26 27 29 30 31 31 32 32 33 34 34 35 35 36 36 36 36 37 38 39 39 39 38
24 22 21 21 21 21 21 21 20 19 17 15 12 12 12 13 14 14 14 14 15 16 16 16 16 17 17 17 17 17 17 17 17 17 17 17 17 17 17 17 17 17 17 17 18 19 20 21 22 22 22 23 23 23 23 24 24 25 25 26 27 28 29 30 30 32 33 33 34 34 34 34 35 36 37 37 38 38 38 38 39 39 40 41 41
25 23 22 22 21 21 21 21 21 20 18 16 13 13 13 14 13 14 14 15 15 16 17 18 18 18 18 18 17 17 17 18 18 19 19 19 19 19 19 19 19 18 18 18 19 20 21 23 24 25 25 26 27 27 27 27 27 28 28 29 30 31 33 33 34 35 36 36 36 37 37 37 37 38 38 39 39 40 40 40 41 41 41 41 41
26 24 24 23 22 21 21 22 21 20 19 17 15 14 14 13 13 14 14 14 16 17 19 19 20 21 20 20 18 17 18 19 19 20 21 22 22 22 22 21 21 21 21 21 21 21 22 24 25 27 27 28 30 31 31 31 31 31 31 31 32 34 35 36 37 38 38 38 38 39 39 40 41 41 41 41 40 40 41 41 42 42 42 42 42
27 25 24 23 22 21 22 22 22 22 21 19 16 16 15 14 13 14 14 15 17 19 20 21 23 23 21 19 19 18 18 20 21 22 24 25 25 25 25 23 23 23 24 23 23 23 24 25 26 28 29 30 32 33 34 34 34 34 34 34 35 36 38 39 40 41 41 41 41 41 41 42 43 44 44 44 43 43 43 43 43 43 44 44 45
27 26 25 24 22 22 23 23 23 23 21 19 18 17 16 14 14 15 15 16 18 20 21 23 24 23 20 18 18 19 19 21 23 24 25 27 27 28 27 26 24 24 25 25 25 25 25 26 28 30 31 33 34 36 38 38 38 37 37 37 38 40 41 41 42 43 43 44 44 44 44 45 45 45 46 46 47 47 47 47 46 46 45 45 46
26 26 25 24 23 23 25 25 24 23 21 19 19 18 17 16 16 16 16 17 18 19 21 23 24 23 20 18 18 19 20 22 24 26 28 28 28 29 28 27 25 25 26 26 26 26 27 28 30 32 33 35 37 40 42 42 42 42 42 42 42 43 44 44 44 44 45 46 46 46 46 46 47 47 47 47 47 48 49 49 48 48 48 47 46
27 27 26 25 25 25 26 26 24 23 21 20 20 19 19 18 18 17 18 18 18 19 21 23 24 23 20 20 20 20 22 23 25 27 29 29 28 28 27 25 24 25 27 28 28 28 28 30 32 34 35 37 40 42 43 44 45 45 45 46 45 45 46 46 46 46 48 48 48 47 47 47 47 47 47 46 46 46 46 46 46 46 47 47 46
28 28 27 27 27 27 27 26 24 22 20 20 21 21 21 20 20 19 19 19 19 19 20 22 23 23 22 21 21 21 22 24 25 27 28 27 26 25 25 24 24 25 28 29 30 30 31 32 34 36 37 39 41 43 44 45 46 46 46 46 46 47 48 48 47 48 49 49 49 47 46 45 45 45 45 45 45 45 45 44 44 44 44 44 45
27 29 30 28 27 27 27 26 24 22 21 21 22 23 23 22 21 21 21 21 20 19 20 22 22 23 23 23 22 21 22 23 24 26 27 26 25 24 24 24 24 26 29 30 31 32 33 35 36 38 39 41 42 44 44 45 46 46 46 47 48 49 51 50 49 48 48 49 49 47 45 45 45 45 45 45 45 46 46 45 45 44 44 44 44
26 28 30 30 28 28 28 27 25 23 22 23 24 24 24 23 23 22 22 22 21 20 21 22 22 23 24 24 24 23 22 22 23 26 27 26 25 24 24 24 25 27 30 31 33 34 35 37 38 40 41 42 43 44 45 46 46 47 48 50 51 52 52 51 49 47 47 48 48 47 45 46 47 46 46 46 46 46 46 46 46 46 46 45 45
27 29 30 30 30 30 30 28 26 25 24 24 25 25 25 24 24 23 24 24 23 22 22 22 23 24 26 28 29 27 26 25 26 29 30 28 26 25 24 25 26 28 30 33 34 36 37 38 40 42 43 43 43 44 46 48 48 50 51 53 53 52 51 50 48 47 47 48 48 47 46 46 46 46 45 45 45 45 45 45 45 45 45 45 45
27 28 29 30 31 32 31 29 28 27 26 26 26 26 26 25 25 25 25 25 24 23 23 23 23 25 27 30 33 33 31 29 30 32 33 31 28 26 25 27 29 30 32 34 36 37 38 40 41 42 43 43 44 45 47 49 51 52 53 52 51 50 49 48 47 46 47 47 47 47 45 45 45 45 44 45 44 43 43 43 43 43 43 43 43
26 26 28 30 31 32 32 31 30 29 28 28 27 27 27 26 26 26 26 26 26 25 25 24 25 25 28 31 34 34 32 31 33 36 35 31 28 27 27 29 31 32 33 36 38 39 40 41 42 43 44 44 45 46 48 50 52 53 52 51 49 48 47 47 47 46 46 46 47 46 45 45 46 45 45 46 46 45 44 43 43 42 42 41 41
27 26 28 29 30 32 33 32 31 31 30 29 29 28 28 27 27 28 27 27 26 26 26 26 26 27 29 32 34 35 35 36 39 41 38 31 29 28 29 31 33 33 35 37 39 40 41 42 43 44 44 45 46 48 50 52 52 52 50 49 48 48 48 47 46 45 45 45 46 45 45 45 46 46 46 46 46 46 45 45 44 43 42 41 40
28 27 27 27 28 31 34 34 34 33 32 31 30 29 29 29 30 29 28 27 26 27 28 28 27 28 31 33 35 36 38 40 44 46 38 31 29 30 31 32 33 35 37 39 39 40 41 42 42 43 44 45 47 49 50 51 51 50 49 48 48 48 47 45 44 43 43 43 44 44 43 44 45 45 45 46 46 46 46 45 45 43 42 41 40
29 28 27 27 29 31 34 35 34 33 32 32 32 31 31 32 33 31 29 27 26 27 30 29 28 30 32 35 36 37 40 43 47 45 36 30 30 31 31 33 34 36 38 39 39 40 41 41 42 43 45 46 47 49 49 49 49 48 48 48 47 45 43 42 41 41 41 42 43 44 44 45 46 46 45 45 45 45 45 44 44 43 42 41 40
31 30 29 29 30 31 33 35 35 34 33 34 34 34 34 35 35 33 30 28 26 28 31 31 30 31 34 36 37 38 41 44 45 41 34 31 31 30 31 33 35 37 38 39 39 40 40 41 43 44 45 46 47 48 48 48 47 47 47 46 43 42 40 39 39 39 40 42 43 44 44 45 46 46 45 44 43 42 42 41 40 40 40 40 39
33 32 31 30 31 32 33 35 37 36 35 35 36 36 37 38 37 34 32 29 27 30 32 32 31 32 35 38 38 38 41 43 41 36 31 30 30 30 32 34 36 38 38 39 39 40 40 42 43 43 44 45 46 47 47 47 46 46 44 42 40 38 38 38 39 40 41 42 43 43 44 44 45 45 44 42 38 36 36 36 36 36 37 37 37
Wind_Direction
112 111 110 108 103 97 93 87 80 70 65 63 60 57 57 55 52 51 48 45 42 39 38 40 40 39 44 50 47 37 28 22 22 18 12 8 10 15 16 13 18 31 38 35 33 42 53 42 37 56 58 100 232 248 256 254 253 257 251 242 239 236 233 232 232 235 238 242 247 253 259 265 271 275 279 280 278 274 271 273 277 282 290 295 300
110 110 108 106 100 94 90 84 76 67 60 57 53 46 45 44 42 38 34 33 34 33 29 31 33 31 33 42 45 42 31 20 19 19 11 4 3 6 10 8 9 19 28 29 30 31 30 17 16 29 27 46 117 216 234 253 263 270 255 238 233 234 236 236 238 242 245 248 252 254 255 257 261 265 269 273 273 272 270 270 270 274 279 286 292
110 106 104 100 97 91 86 81 75 67 62 60 53 44 39 35 33 29 22 21 23 25 24 21 22 20 20 30 39 40 36 23 16 19 14 4 1 1 4 6 6 12 17 14 18 20 16 11 10 12 8 11 359 282 282 311 312 304 281 238 226 230 238 244 248 254 259 262 262 263 264 264 264 265 268 269 271 270 267 265 265 267 271 277 282
108 104 102 98 93 89 83 78 72 63 56 52 46 40 34 26 19 15 11 8 10 14 19 19 15 7 1 10 22 30 32 25 16 17 15 6 1 359 0 3 6 11 12 4 358 5 19 20 11 10 11 11 1 330 333 338 331 336 347 234 218 230 245 256 263 266 269 271 268 267 266 266 265 265 266 267 269 270 268 265 263 263 265 269 275
105 103 100 96 90 84 77 69 62 51 39 32 27 22 16 10 2 2 3 359 359 3 7 10 8 2 348 344 0 17 23 22 18 15 15 10 2 1 0 359 3 9 8 1 355 356 7 12 7 8 12 13 358 336 339 340 337 343 350 199 207 225 245 262 270 270 269 269 268 266 265 264 262 259 258 260 264 267 269 268 265 263 262 264 268
103 100 96 89 81 72 61 52 41 30 24 19 14 10 4 358 352 351 353 351 352 356 359 358 354 353 345 334 339 354 7 13 15 13 11 12 6 2 1 358 359 3 5 2 356 351 348 350 353 355 359 358 345 331 334 340 354 354 333 290 218 218 233 250 260 263 266 267 264 262 261 260 259 256 253 254 257 261 263 263 262 260 259 259 261
101 95 88 78 66 52 39 32 26 17 16 16 12 9 4 359 357 353 352 353 353 353 355 352 343 339 337 334 333 332 336 342 357 6 0 9 10 1 358 357 355 357 2 0 353 347 342 341 342 340 343 343 335 333 338 347 21 21 352 323 254 222 224 230 240 252 264 270 264 260 258 256 257 255 252 250 251 254 256 257 257 257 255 255 256
100 89 77 63 46 29 19 19 20 15 13 16 14 12 8 5 3 360 1 2 1 355 350 346 339 332 327 326 327 323 317 318 327 340 342 357 4 355 352 353 352 352 358 358 349 344 342 341 338 332 333 337 333 333 340 350 20 36 358 313 279 247 242 246 256 265 272 277 269 265 265 262 258 254 250 247 247 249 251 253 255 256 255 253 252
94 79 62 45 28 10 6 15 18 15 14 14 14 14 13 11 7 4 5 6 4 357 346 340 336 333 324 315 315 316 309 310 319 324 325 340 345 339 344 347 345 346 353 356 346 342 339 337 335 330 329 333 334 333 334 339 354 1 332 311 286 270 285 293 295 290 284 285 279 276 277 279 273 261 254 249 247 246 247 249 251 254 256 254 251
90 72 53 29 9 358 3 14 16 13 11 11 13 16 17 17 14 8 6 4 1 355 345 336 332 331 326 313 307 307 304 307 315 318 317 322 321 322 332 335 333 336 345 350 344 340 338 335 333 331 330 331 332 328 324 326 335 334 320 310 303 309 319 321 317 306 293 287 285 288 289 286 281 272 268 264 258 251 247 246 247 249 252 253 251
89 69 46 14 359 359 5 10 10 8 7 9 13 17 22 25 24 19 13 7 359 352 346 338 333 328 321 317 309 303 304 307 311 308 307 309 310 313 319 320 321 326 333 339 338 337 338 336 332 330 328 330 332 326 321 320 322 322 316 308 309 316 320 324 322 310 301 296 294 298 297 286 276 270 270 272 269 262 255 250 247 246 247 249 249
88 61 33 6 358 360 3 5 5 4 3 7 13 16 23 28 26 22 18 11 3 357 354 347 339 332 324 322 316 309 307 306 305 302 300 302 303 306 308 309 312 317 319 322 326 329 331 331 329 327 325 327 329 328 326 322 319 320 316 309 308 310 310 316 318 309 307 311 310 305 298 290 282 278 274 272 270 268 265 260 254 249 245 244 246
80 49 19 360 356 356 359 1 1 0 360 5 12 14 18 21 16 13 9 4 1 360 358 354 348 344 337 330 323 315 310 305 302 300 299 297 296 297 299 300 303 306 307 308 312 315 317 319 322 323 322 322 323 324 325 322 321 321 316 310 308 308 309 312 310 305 305 310 312 309 302 297 293 291 289 282 275 274 274 271 266 261 252 244 242
60 28 3 347 346 349 354 358 357 357 358 4 12 12 13 14 11 8 2 357 357 357 353 348 346 346 344 338 332 325 317 309 303 299 297 294 292 290 290 293 295 296 297 300 303 305 306 308 311 314 315 315 315 317 318 318 319 318 315 312 309 309 311 312 309 305 303 304 307 308 305 304 301 297 293 288 283 281 281 277 274 271 263 252 245
23 360 346 335 337 344 350 353 353 353 354 2 10 13 15 16 13 8 4 4 7 7 2 354 345 338 335 337 346 350 339 322 309 301 297 294 292 290 290 291 292 292 293 295 297 298 299 300 302 304 305 306 308 311 312 314 315 314 313 312 310 310 310 309 306 304 305 306 306 306 305 305 305 301 295 290 286 283 282 279 276 272 268 263 257
329 334 332 328 332 339 344 347 348 349 353 3 12 17 20 19 16 17 20 25 27 25 23 20 15 4 352 348 360 5 359 347 329 313 305 298 296 295 295 295 293 291 290 290 292 294 297 299 298 297 297 298 301 304 305 307 308 308 309 309 309 308 305 301 299 298 300 302 304 305 305 306 305 302 298 294 291 287 283 280 278 276 273 269 263
300 318 323 321 326 331 336 339 340 343 352 5 15 20 23 22 21 29 34 33 32 31 32 35 37 37 32 24 13 2 353 347 340 327 317 309 303 299 296 294 292 290 287 286 288 292 295 297 295 293 293 295 296 297 297 298 300 300 301 302 302 300 298 296 294 292 293 295 298 302 304 305 304 301 297 295 293 291 288 284 281 278 276 274 268
284 306 315 316 320 323 327 329 329 336 351 7 19 22 24 22 23 32 36 30 27 28 30 32 37 39 38 33 24 12 2 354 347 338 329 321 315 309 303 298 295 292 288 285 286 288 291 292 293 294 294 294 293 292 291 290 291 292 292 293 294 295 295 294 294 293 293 294 295 298 300 303 303 301 299 295 293 291 288 287 284 280 277 274 270
275 297 309 311 314 316 318 316 314 327 346 7 20 23 21 17 17 23 27 23 21 21 21 22 26 29 29 28 24 20 16 9 2 355 346 338 330 322 316 311 306 301 297 293 290 288 287 288 289 290 291 290 290 289 287 286 284 284 285 287 289 292 294 294 294 294 293 293 292 293 295 297 299 300 299 297 295 293 290 288 287 285 281 276 271
269 291 304 307 309 310 308 304 300 316 334 0 18 19 14 8 5 5 4 6 10 14 15 15 17 18 19 18 17 17 15 13 9 4 359 354 348 342 334 326 319 313 308 303 298 292 288 286 285 286 286 287 288 286 284 283 282 281 280 282 285 288 291 292 293 293 293 292 292 293 294 295 296 297 297 295 294 293 292 290 289 288 286 282 277
265 285 299 305 307 304 300 294 288 303 319 346 9 8 3 360 355 349 342 343 354 5 10 12 13 12 12 12 11 10 9 7 5 3 0 356 353 349 346 340 333 324 316 309 303 298 293 289 288 287 286 286 285 284 283 281 280 279 278 279 281 283 284 286 288 290 291 291 291 291 292 293 293 293 293 292 290 290 289 288 287 286 285 284 282
263 278 291 299 303 298 293 286 276 285 303 325 351 352 352 353 348 338 332 335 348 360 4 6 6 6 6 6 5 4 2 359 357 355 354 352 349 347 344 341 338 330 323 316 310 305 301 298 297 295 293 291 290 287 284 281 279 278 277 277 277 278 278 279 280 281 283 284 285 286 288 288 289 289 288 287 286 285 285 285 284 283 282 281 281
261 271 282 292 298 294 286 277 267 272 287 303 328 337 341 345 340 328 325 334 347 352 355 359 1 2 2 1 1 359 357 353 349 347 345 344 342 340 339 336 334 331 326 320 315 311 308 307 305 304 302 299 297 294 291 287 282 277 275 274 274 274 274 275 275 276 276 278 280 282 283 284 285 285 284 284 283 281 281 281 281 280 280 279 278
261 269 278 286 294 292 281 268 261 264 274 287 308 325 331 335 329 319 317 328 338 342 348 354 357 356 353 352 351 351 349 346 342 339 337 335 333 331 331 329 328 328 325 320 316 313 311 310 309 308 306 304 301 299 297 295 290 284 278 274 273 272 272 273 273 274 275 277 278 279 280 281 281 282 282 281 281 280 279 278 277 277 277 277 276
263 271 278 284 288 288 276 262 256 258 263 273 293 312 322 324 318 308 308 320 329 336 344 349 350 349 347 344 343 343 343 341 338 334 329 326 324 323 322 321 323 323 323 321 317 314 311 310 309 308 307 306 305 303 301 300 297 293 287 280 276 274 273 273 273 274 276 276 277 277 278 278 278 278 278 278 278 278 278 277 275 274 273 273 273
265 273 279 281 283 281 269 255 252 254 255 263 283 302 311 312 306 298 303 316 327 337 343 345 347 348 347 344 341 340 339 339 338 335 331 324 318 316 315 314 316 319 320 322 320 317 313 311 311 310 310 310 308 305 303 303 301 299 295 290 284 280 277 276 275 275 275 275 276 276 277 277 277 276 276 276 276 275 275 275 274 273 271 270 269
263 274 278 278 279 276 263 251 248 249 250 258 275 292 300 300 295 293 303 315 328 338 342 344 346 345 343 340 338 338 338 339 339 338 337 334 325 317 313 312 312 315 319 322 323 320 317 317 317 316 315 313 311 307 305 303 302 300 299 296 292 288 284 282 280 279 277 277 276 276 276 276 276 276 276 276 276 276 275 274 273 272 272 270 268
260 269 275 277 277 273 262 249 243 243 246 255 268 280 288 290 287 292 303 314 327 336 338 341 342 340 336 335 335 337 339 340 341 343 345 346 344 334 321 315 313 314 318 323 325 324 322 323 324 323 321 319 316 312 308 304 302 300 299 298 296 292 289 287 285 283 282 281 280 279 277 275 274 273 273 273 274 275 275 275 273 272 271 270 268
253 260 270 276 275 271 261 248 240 239 243 251 261 271 278 281 284 293 303 312 323 331 333 337 337 334 332 333 336 339 341 341 343 345 348 351 354 352 343 332 325 321 323 325 326 326 327 327 325 325 326 326 324 320 316 311 306 302 298 296 294 292 290 289 288 286 285 284 283 282 280 278 276 274 272 271 271 271 272 273 273 272 270 268 266
250 255 266 272 273 270 260 247 239 237 239 246 254 263 270 275 283 294 302 310 318 325 328 331 331 330 332 335 340 342 342 344 345 347 350 352 354 355 354 351 342 332 328 328 330 329 329 327 324 324 326 327 326 324 321 316 311 306 300 296 293 290 288 287 285 284 283 282 281 281 281 280 280 279 277 274 272 271 270 270 271 271 271 269 266
250 253 261 267 269 268 258 245 239 237 237 241 248 256 264 273 284 294 300 307 314 319 322 324 324 328 334 341 346 347 347 349 351 352 353 355 356 354 351 352 349 341 332 328 329 329 327 325 324 323 324 325 325 324 321 318 314 309 303 299 295 291 287 285 283 282 281 280 280 280 280 281 281 281 280 278 276 273 271 269 270 271 271 270 269
249 251 257 262 265 266 257 245 240 238 237 239 243 250 261 273 285 293 297 303 310 314 316 319 322 328 337 346 350 350 351 353 353 355 355 356 359 357 351 349 347 343 338 332 331 330 327 326 326 325 324 324 324 322 320 317 313 307 302 296 292 289 286 284 282 281 280 279 279 279 280 280 280 279 279 278 277 275 273 272 272 271 271 271 270
249 250 254 257 260 262 255 244 240 240 239 239 240 248 261 274 285 290 294 299 306 312 315 319 323 327 335 344 350 350 351 353 352 352 352 352 354 354 349 347 346 343 339 336 333 331 329 327 326 325 323 321 321 318 314 313 310 304 297 292 287 283 280 278 278 277 278 278 278 278 278 278 279 279 278 277 276 275 274 274 273 273 272 271 270
249 249 252 254 256 259 252 243 242 243 242 241 241 249 263 275 283 286 289 297 306 314 318 321 325 327 331 337 344 347 348 349 347 345 346 344 344 344 343 342 342 340 337 335 332 329 329 328 326 324 321 318 316 313 310 309 308 303 297 291 286 281 278 276 276 277 278 278 278 278 279 279 279 279 279 279 278 277 276 275 273 272 271 271 271
247 247 250 251 253 255 248 241 244 246 244 244 244 251 264 273 277 279 287 297 307 313 315 318 324 328 328 329 336 342 344 343 341 339 340 339 337 337 338 338 338 337 335 333 332 329 327 327 325 323 321 318 315 313 311 308 305 302 297 293 288 284 281 280 280 281 282 281 281 280 280 281 281 281 280 279 278 278 277 276 274 273 271 270 270
244 245 246 248 251 251 243 241 245 248 247 247 249 254 263 267 268 274 286 297 304 307 309 314 321 325 324 322 327 334 337 336 335 336 336 335 334 333 334 334 333 332 331 330 329 327 324 324 323 320 318 317 315 312 310 307 303 300 297 295 293 290 288 288 288 287 287 286 285 283 282 281 281 282 281 281 280 278 277 276 275 274 273 272 270
241 241 242 245 249 246 240 241 245 246 247 249 253 259 261 259 262 273 284 292 297 303 308 314 321 323 320 318 322 328 331 330 330 333 334 333 332 331 330 330 329 327 327 326 326 324 321 320 319 318 316 314 311 309 307 304 301 299 298 298 298 296 295 295 294 293 292 291 290 289 288 286 286 285 285 285 284 283 281 279 277 275 273 272 271
239 239 240 243 244 239 237 240 243 246 248 252 259 262 258 255 262 272 279 286 295 304 311 316 321 322 318 314 318 324 327 328 329 331 332 332 332 331 329 327 326 325 324 323 322 320 318 318 317 316 315 313 310 308 307 305 303 302 302 303 302 300 299 299 298 296 295 294 294 293 292 292 291 290 289 288 287 286 285 284 282 279 277 275 273
240 241 241 242 241 235 235 239 242 245 248 253 260 260 255 257 264 268 275 285 295 305 312 316 320 320 316 313 317 322 326 328 329 330 330 332 332 330 328 327 325 323 322 321 319 316 316 316 315 313 312 311 309 309 308 307 307 307 308 308 306 304 303 303 301 299 297 296 296 295 294 293 292 291 290 289 287 286 285 284 283 282 280 278 276
249 248 244 242 240 236 235 238 241 244 247 255 259 255 253 258 262 266 275 286 296 305 312 315 317 317 315 314 317 322 326 328 329 329 330 331 330 328 327 325 323 321 321 319 317 316 316 314 312 312 310 309 309 309 309 309 309 310 311 310 309 307 305 304 302 300 299 298 297 297 296 295 294 293 292 291 289 287 285 283 281 280 279 278 277
258 257 252 245 243 242 240 240 242 243 247 253 253 250 252 258 262 268 278 287 297 307 311 313 314 314 313 313 316 322 325 327 329 330 330 329 329 327 325 323 321 320 320 318 316 315 314 313 312 312 310 308 308 309 309 310 311 312 312 310 308 305 304 304 303 302 300 299 299 298 298 297 296 295 294 293 291 290 288 285 282 280 278 276 275
264 264 261 255 251 249 247 246 244 242 245 249 247 248 254 259 265 273 283 291 299 306 309 312 313 312 311 311 313 319 321 323 328 330 329 328 327 324 322 321 320 319 318 317 316 313 312 311 312 312 310 308 309 310 310 312 313 312 310 308 306 304 304 305 305 304 302 301 300 300 299 298 296 296 294 293 291 290 289 287 284 282 279 276 274
270 268 266 263 259 257 255 252 246 240 242 244 244 249 257 263 270 279 285 292 298 302 307 310 312 312 311 309 308 310 313 316 324 328 326 326 325 323 320 318 316 317 317 316 314 312 311 311 311 312 311 310 311 313 313 314 313 311 309 307 306 306 306 306 305 304 303 302 302 301 300 298 297 296 295 293 292 291 289 288 286 284 282 279 276
275 271 270 267 263 260 259 257 250 243 241 242 244 251 259 265 272 279 284 289 294 299 304 309 311 311 310 307 304 304 306 311 320 327 326 324 324 322 318 315 312 314 316 315 313 312 312 311 311 311 312 313 314 315 315 314 313 310 308 307 307 307 307 307 306 305 304 303 302 301 300 298 298 297 295 293 292 291 290 288 287 285 283 281 278
281 277 274 270 264 261 261 260 254 246 242 242 246 252 259 265 271 277 281 286 290 294 300 305 309 310 309 309 309 308 307 306 313 321 322 320 322 320 315 312 311 313 314 314 313 312 313 312 312 313 315 316 316 316 315 313 311 309 308 309 309 309 309 308 308 306 305 304 304 303 302 301 300 299 298 296 295 293 291 290 288 286 284 282 279
288 286 280 274 267 262 261 260 255 247 242 242 245 252 257 263 269 273 277 283 287 292 297 301 306 308 310 314 315 315 313 309 310 315 316 315 318 317 313 313 313 313 313 312 312 313 314 315 315 316 317 317 317 315 314 312 310 309 309 310 311 311 311 310 310 309 308 307 305 305 304 303 302 302 301 299 297 296 294 292 290 288 285 283 280
289 289 283 277 270 263 260 259 256 249 243 241 244 250 254 260 266 270 274 279 284 290 295 299 304 309 312 314 316 317 317 315 314 314 312 310 313 313 312 313 314 313 312 310 311 313 315 315 316 316 317 318 317 315 313 311 310 310 311 312 312 312 313 312 312 311 310 308 306 306 306 306 305 304 302 300 299 297 294 292 290 288 287 285 282
285 286 284 281 275 266 261 260 258 253 245 242 244 248 252 257 262 266 271 277 282 289 293 297 303 308 311 312 313 315 315 315 316 316 310 305 308 310 311 312 313 311 310 309 311 314 314 315 315 316 317 317 316 314 312 310 310 311 313 313 314 314 315 314 312 311 309 308 308 309 310 309 307 306 304 301 298 296 293 291 289 288 287 286 284
280 283 284 282 277 268 261 261 261 257 247 242 245 248 251 256 260 264 269 274 280 286 290 295 302 306 307 308 310 313 315 315 317 315 307 301 305 308 308 310 309 307 306 308 311 313 313 315 316 317 318 317 315 313 312 311 313 314 315 315 316 316 315 313 312 312 312 312 312 314 314 312 309 308 305 302 299 296 293 291 289 287 286 285 285
275 278 278 276 273 267 262 261 261 257 248 243 245 248 250 253 258 261 266 272 278 284 288 292 298 301 302 304 306 311 315 316 317 314 303 298 303 305 305 306 305 304 306 309 311 312 313 315 317 317 317 316 314 313 313 314 316 316 317 317 317 315 314 313 314 315 316 315 316 317 316 314 312 311 308 304 301 299 296 294 292 289 287 285 285
270 272 273 273 272 268 263 259 258 256 250 244 244 248 249 252 257 260 265 270 276 281 285 288 292 295 297 299 304 310 314 315 316 313 303 298 301 303 303 302 302 304 308 310 311 312 314 316 317 317 316 315 315 315 317 317 318 318 318 318 316 315 315 316 317 318 317 317 318 319 319 317 315 313 311 307 305 304 303 300 296 293 291 288 286